sat.trackr.live / text

‹ back to catalog

XPOSAT

NORAD 58694 · 2024-001A

PAYLOAD ACTIVE UNKNOWN

§ Identity

Operator
Country
IND
Launch date
2024-01-01
Launch site
SRILR
Launch vehicle
Mass (kg)
RCS (m²)

External: N2YO · Heavens-Above · Gunter

§ Orbital elements

Epoch: 2026-07-09T20:20:06.983520Z

Period
97.34 min
Inclination
5.9881°
Eccentricity
0.0008638
Mean motion
14.79335705 rev/d
Perigee alt
625.4 km
Apogee alt
637.5 km
Semi-major
7,009.6 km
B*
9.7713e-5
RAAN
25.1227°
Arg perigee
85.4557°
Mean anomaly
274.6557°
Rev number
13,638

§ Raw data

XPOSAT1 58694U 24001A   26190.84730305  .00001398  00000+0  97713-4 0  99982 58694   5.9881  25.1227 0008638  85.4557 274.6557 14.79335705136384

JSON: /api/v1/satellites/58694 · /tle

For live sub-satellite position, see the globe view (requires WebGL).

§ Visibility from observer

Set your observer location to see the next 7 days of passes ≥ 10°. The values pass through the URL so the page stays shareable.

No JS? Fill the form by hand. The geolocation button needs JavaScript.